GFSSGP_sfc_dewp_222.txt.gz
Dewpoint
68 69 71 70 63 62 54 52 50 48 47 51 53 54 56 58 56 56 65 66 65 67 71 72 75 75 75 75 75 75 75 75 74 75 75 75 74 74 74 74 74 73 73 73 73 73 72 72 73
66 70 71 69 60 55 53 50 48 49 51 52 52 55 55 56 58 60 60 67 67 67 70 72 76 75 75 74 75 75 75 75 75 74 74 74 75 74 74 74 74 74 73 73 72 72 72 72 72
68 68 67 64 60 52 49 49 49 50 51 53 55 58 56 56 58 59 64 67 68 68 71 73 75 74 74 74 74 75 74 74 74 73 73 73 74 74 74 73 73 73 73 71 71 71 71 71 72
67 67 66 61 56 49 49 48 49 51 53 57 57 55 57 61 60 60 65 66 69 69 70 74 75 74 74 74 74 75 74 73 73 73 73 73 74 73 73 73 72 72 72 72 72 70 71 71 71
65 66 61 59 51 50 50 49 53 53 55 56 58 57 57 60 60 60 61 62 68 68 70 71 76 75 75 73 74 74 74 73 73 73 73 73 73 72 71 71 70 70 70 71 71 72 70 71 70
66 66 59 55 50 50 49 50 53 55 55 57 58 58 58 60 59 59 60 61 61 65 70 71 75 75 75 73 74 74 73 72 72 72 72 71 71 71 72 72 72 72 72 73 73 70 70 70 69
62 62 58 54 49 51 50 51 53 54 56 54 57 56 58 58 59 59 59 61 61 63 66 71 71 73 73 73 73 73 73 72 72 72 71 71 72 73 72 72 72 72 72 73 71 71 71 70 70
60 61 58 52 51 51 54 56 55 53 56 55 56 54 55 57 58 58 58 60 62 63 66 70 72 71 71 71 73 73 73 73 72 73 73 73 73 73 73 74 73 71 73 75 74 73 72 72 72
58 50 56 58 54 54 56 54 55 58 55 56 57 55 56 57 57 56 58 58 60 63 65 66 66 70 71 70 70 73 73 73 73 72 73 74 73 72 72 75 74 74 75 76 75 74 73 73 73
58 53 49 56 58 56 57 58 55 56 55 55 54 55 57 57 55 56 57 57 58 60 60 61 63 65 67 66 73 73 72 73 76 75 75 75 74 74 68 72 76 76 76 76 76 75 73 72 70
57 51 49 51 55 58 55 55 55 55 55 55 54 56 56 55 55 56 56 56 56 59 59 60 63 67 67 71 73 73 73 74 73 74 77 74 74 74 71 73 73 69 73 72 73 74 71 71 73
48 46 47 49 54 57 55 57 56 55 56 59 56 56 55 55 53 54 56 55 55 57 57 59 67 67 71 69 71 72 71 75 74 71 72 76 72 73 73 73 73 70 73 67 70 73 74 72 72
42 46 46 48 53 58 60 56 57 55 60 61 57 55 54 54 52 53 55 54 55 58 61 64 70 70 74 69 71 74 73 72 71 66 72 73 74 76 71 72 73 74 73 71 73 73 70 69 71
41 45 43 48 54 56 62 61 56 57 59 58 58 55 54 54 51 51 54 54 55 59 62 65 70 75 73 76 77 73 73 74 71 73 75 77 74 76 76 73 71 72 75 74 73 72 70 72 71
43 47 48 46 52 53 56 53 52 51 57 57 58 57 55 55 52 52 53 56 56 58 62 68 70 71 75 75 76 77 73 69 71 75 78 78 75 75 79 73 72 74 77 76 76 75 72 71 67
30 49 51 54 52 54 56 53 57 57 53 57 57 57 56 55 52 53 55 57 58 58 68 69 66 69 73 75 75 75 72 72 71 72 76 77 76 76 78 73 73 74 73 72 72 72 69 68 70
33 33 49 52 50 60 55 56 49 55 54 56 58 59 57 55 55 57 54 53 57 63 69 70 71 70 72 76 74 76 77 73 73 71 73 78 75 76 77 74 76 75 70 71 72 72 72 72 70
30 34 46 48 49 58 57 48 43 52 53 54 55 59 58 56 54 57 56 53 56 64 69 71 71 74 76 75 78 76 75 74 73 71 73 74 74 75 77 74 76 75 71 71 73 75 74 73 69
31 37 42 46 48 52 55 56 52 58 53 55 55 57 58 57 55 58 57 53 56 62 69 72 74 76 75 75 72 72 70 73 72 73 75 75 75 75 76 75 72 74 73 75 74 73 71 71 73
31 31 40 46 45 49 55 54 56 56 54 53 55 56 55 56 56 58 60 55 57 62 69 73 74 75 76 73 75 73 74 73 72 73 76 75 75 75 76 78 76 76 76 76 72 72 71 67 70
29 29 40 42 41 44 51 53 53 52 51 51 52 56 57 56 56 59 61 59 58 62 68 72 74 75 75 76 76 74 75 76 72 73 74 75 76 77 77 78 78 77 75 74 73 73 68 67 66
27 29 28 36 38 32 32 30 51 49 46 47 50 54 56 57 58 60 61 62 59 61 66 71 73 75 75 77 75 76 74 72 74 72 74 74 76 76 76 76 78 78 76 76 74 71 73 69 65
27 28 28 28 30 30 30 28 37 44 47 46 47 52 54 57 57 58 59 62 62 60 62 69 73 76 74 76 78 75 77 73 73 73 76 76 78 77 74 78 79 77 76 77 76 74 73 70 69
28 27 29 32 30 26 28 28 36 38 44 45 47 50 53 56 58 59 61 63 62 60 61 66 72 76 75 76 76 77 75 76 73 73 72 73 74 76 78 77 79 79 79 78 76 75 73 71 69
26 26 26 30 28 24 26 26 34 39 38 38 47 48 51 56 57 59 60 62 63 62 61 64 71 73 74 74 75 76 76 78 77 76 72 72 71 72 78 80 80 79 80 79 78 77 75 73 70
26 26 26 29 28 24 27 26 28 39 38 41 45 47 49 50 54 57 59 62 63 63 62 64 71 73 74 74 74 76 77 75 75 76 74 75 73 74 78 78 79 79 79 78 79 77 75 75 73
24 27 25 25 28 23 23 26 28 35 33 33 40 47 49 49 49 56 58 61 63 63 64 63 71 73 74 73 74 75 76 76 75 77 78 74 77 76 77 77 78 78 78 79 79 77 76 75 75
20 26 23 26 28 28 25 33 31 39 35 34 33 35 41 41 40 47 57 61 62 62 64 65 70 72 73 73 74 75 75 75 77 78 78 76 77 78 77 76 77 78 78 78 79 78 78 76 76
17 21 25 23 25 26 26 28 36 42 39 35 34 39 40 42 44 51 54 60 62 61 62 63 66 71 73 73 74 75 75 75 75 76 78 75 78 78 78 78 78 78 78 78 79 78 78 77 77
14 21 23 27 32 24 26 23 36 38 37 35 35 41 39 39 42 53 55 59 61 62 62 62 64 70 71 73 74 74 75 74 73 75 76 77 76 79 77 78 78 78 78 78 78 77 75 75 76

GFSSGP_sfc_dewp_225.txt.gz
Dewpoint
68 69 70 71 62 61 55 53 51 50 51 55 56 57 56 57 56 52 67 69 69 71 73 74 76 76 75 75 75 75 75 75 75 75 75 74 74 74 74 74 74 73 73 73 73 72 73 73 74
66 69 72 68 59 54 51 51 50 50 53 57 56 56 56 56 59 63 65 69 70 71 72 73 76 76 74 75 75 75 75 75 75 74 74 75 75 74 74 74 74 73 73 73 73 73 73 73 73
67 70 67 63 59 52 49 49 50 50 55 57 56 56 56 58 61 64 66 68 69 71 73 73 76 75 75 75 76 75 75 75 73 74 74 74 74 74 74 74 74 74 73 73 73 72 72 73 73
69 69 68 60 55 50 49 49 50 56 56 55 55 57 59 61 63 65 67 68 71 71 73 75 75 74 75 75 75 75 74 74 73 73 74 74 74 74 73 73 73 73 72 72 71 72 72 72 73
68 67 61 58 55 49 49 51 56 55 57 57 56 57 59 60 65 66 68 68 68 70 73 73 76 76 74 75 75 75 75 74 74 74 74 73 73 73 72 72 71 71 71 71 72 71 73 72 73
66 65 58 55 55 49 51 56 55 57 58 57 58 58 57 60 64 64 68 68 69 69 73 73 75 76 74 75 75 74 73 73 73 73 73 72 72 71 72 72 72 72 73 73 71 69 71 70 72
64 62 58 57 49 49 53 55 55 56 57 57 58 56 58 59 60 60 67 67 69 69 71 73 73 73 73 74 74 74 73 73 73 73 73 73 72 72 73 74 74 73 73 73 69 70 70 70 72
66 64 59 57 51 52 53 54 57 56 55 58 58 55 56 59 58 59 61 64 64 68 69 70 71 71 71 71 74 74 75 74 72 72 71 72 73 73 73 74 74 74 75 75 73 72 71 71 72
64 59 56 55 56 55 56 53 54 58 55 56 57 57 57 57 57 58 59 61 64 67 69 69 70 70 70 70 71 75 74 73 72 72 72 74 72 72 72 73 76 75 75 74 73 73 73 73 73
58 53 54 61 63 60 56 54 56 57 57 55 55 57 57 57 56 57 57 57 59 66 66 67 68 69 68 67 70 72 72 73 71 66 72 73 73 72 71 75 76 75 74 74 74 73 72 73 71
55 53 53 57 61 61 60 57 56 57 57 54 55 55 56 56 56 58 57 57 58 62 61 62 64 66 66 69 71 73 74 73 67 69 71 73 74 73 74 72 68 67 69 72 74 75 71 70 70
52 52 49 55 59 59 61 60 58 57 60 55 56 56 55 55 56 57 56 57 57 59 59 63 66 66 68 71 72 72 71 73 72 70 72 72 69 72 72 69 67 68 71 68 70 73 73 72 71
52 46 47 55 59 59 63 63 59 59 60 56 56 56 55 54 55 56 56 55 57 58 63 66 66 69 69 70 70 71 71 71 68 66 71 71 71 72 71 68 68 71 73 70 71 72 73 71 71
45 45 45 56 57 55 60 62 62 60 59 55 55 55 55 53 53 55 55 54 57 62 65 68 70 71 70 72 71 70 70 71 69 64 68 72 73 74 70 70 71 73 72 73 72 71 65 68 69
45 43 51 55 58 57 60 57 60 61 59 55 54 54 54 54 51 54 55 55 57 62 64 68 69 72 70 70 69 71 72 71 72 73 72 73 73 74 75 71 71 71 72 71 72 72 71 69 69
38 48 46 51 58 60 59 55 60 64 62 57 55 54 54 55 52 54 55 55 58 64 66 67 67 71 70 70 71 71 70 71 71 72 72 72 72 73 74 68 67 69 72 71 66 71 69 69 67
35 42 51 53 54 59 56 56 55 52 57 57 57 56 54 54 52 55 56 55 58 66 67 67 68 69 70 70 72 71 71 71 71 72 71 72 72 73 71 68 71 66 67 69 69 70 66 66 66
33 48 49 50 53 57 55 56 55 54 54 57 57 57 55 54 53 54 54 55 64 66 67 69 69 68 71 71 72 72 69 71 71 72 72 72 71 73 71 71 70 68 66 67 68 68 69 68 68
33 33 46 49 55 54 54 53 52 55 53 56 58 57 57 54 55 54 52 56 66 66 66 70 70 72 70 70 71 67 66 70 72 71 70 70 70 73 75 71 70 69 69 69 68 69 64 64 67
32 32 43 48 51 51 53 50 50 51 55 59 61 58 58 55 55 55 53 56 63 66 66 71 70 73 70 72 71 69 68 71 71 71 70 70 72 73 73 73 73 71 72 66 64 65 66 61 63
30 29 43 44 50 51 53 51 52 52 56 62 61 58 58 56 55 56 53 54 60 65 66 71 71 72 72 71 71 72 73 70 71 71 70 70 72 73 73 74 74 74 71 69 67 66 61 58 58
28 29 37 38 40 41 50 45 51 52 54 61 59 57 56 56 55 57 54 54 59 65 66 71 71 71 70 73 70 69 68 68 69 69 70 70 71 74 75 74 73 74 71 67 66 66 68 62 56
28 29 29 39 37 35 46 42 46 51 51 55 60 59 57 56 56 57 57 55 57 64 66 70 73 72 68 72 74 71 71 68 71 71 70 71 71 72 73 74 74 74 73 72 70 68 64 62 61
28 27 27 32 35 28 34 39 40 49 50 51 56 56 56 56 56 57 58 58 57 62 66 69 73 72 71 72 73 73 68 71 71 71 72 72 71 72 73 74 75 75 74 72 71 69 65 60 61
23 25 25 29 30 31 31 28 41 48 49 51 51 54 56 57 57 58 58 60 59 60 64 69 71 72 72 73 73 72 71 72 72 70 71 71 70 71 74 73 75 75 75 74 73 71 69 68 62
20 24 24 28 29 31 31 27 38 42 47 51 51 51 55 56 57 58 59 60 60 59 60 67 68 72 71 73 72 73 74 73 73 72 70 71 70 71 75 75 75 76 76 75 74 72 71 69 67
15 20 26 24 30 29 29 28 39 39 47 50 55 59 55 57 57 57 59 60 60 60 60 64 68 70 71 73 72 73 74 73 72 72 71 72 73 72 75 76 75 76 76 75 75 75 71 70 71
14 21 22 26 23 25 27 32 33 39 36 45 50 51 53 55 55 57 59 60 60 60 60 62 68 68 71 71 71 73 72 74 74 75 71 70 73 74 75 75 75 75 75 75 75 75 74 71 72
8 13 21 26 27 24 26 28 35 38 36 37 45 47 50 51 47 52 58 60 61 61 60 61 68 68 71 70 71 72 71 73 73 73 75 74 71 75 74 74 74 74 75 75 75 74 75 73 73
8 12 20 26 27 30 29 28 36 33 35 36 37 40 46 46 51 56 57 60 61 61 62 60 68 69 70 71 71 71 73 71 72 73 73 76 72 75 74 73 73 75 74 75 75 74 74 74 73

GFSSGP_sfc_dewp_228.txt.gz
Dewpoint
69 70 71 71 60 61 55 51 52 53 55 57 57 57 57 58 53 52 69 70 71 73 74 74 76 75 75 75 75 75 75 75 75 75 75 74 74 74 74 74 74 73 73 73 73 73 74 75 75
68 70 73 67 58 52 51 50 54 54 56 56 56 57 57 58 64 67 67 71 72 72 73 74 76 76 75 75 75 75 75 75 75 75 74 75 75 74 74 73 73 73 73 73 73 73 73 74 74
69 72 67 63 59 51 48 51 55 55 56 56 55 58 59 63 64 65 69 70 71 72 73 74 75 75 75 75 75 75 74 75 75 75 75 75 75 75 74 74 74 73 73 73 73 73 73 73 74
70 70 68 60 55 52 50 54 54 55 56 57 58 57 60 65 64 67 69 71 71 72 73 75 75 75 75 75 75 75 73 73 74 74 75 74 74 74 74 73 73 72 72 72 73 73 73 73 73
70 67 60 57 55 49 52 56 57 56 56 57 57 57 60 64 66 68 70 71 72 73 73 72 76 75 75 75 74 73 73 73 74 74 74 74 74 73 72 72 72 72 72 72 72 73 72 73 73
66 65 57 54 53 53 55 57 57 57 58 58 57 57 60 65 66 69 70 70 72 72 73 73 76 75 75 75 74 74 74 74 74 74 73 73 72 72 71 71 71 72 72 73 71 72 71 73 71
64 62 56 57 54 55 56 58 56 57 57 57 57 57 61 64 67 68 68 69 71 72 72 73 73 72 75 75 74 73 73 73 73 73 72 72 72 71 72 72 73 73 74 73 71 71 71 71 72
67 63 58 57 53 54 56 55 58 57 57 58 58 56 58 62 67 68 69 69 70 72 72 72 72 71 71 72 75 74 74 73 73 73 72 72 73 72 72 73 75 73 74 73 72 71 71 71 73
66 59 57 56 57 57 55 54 58 58 57 57 57 57 58 62 66 67 67 66 68 70 71 71 71 71 71 71 72 75 74 73 73 72 73 72 72 72 72 71 74 74 74 74 73 72 71 72 73
60 56 55 59 58 60 61 57 56 56 56 56 57 58 57 61 61 63 62 64 67 69 69 69 70 70 69 69 71 72 72 72 70 69 72 73 72 72 73 75 73 74 75 75 73 73 73 73 71
55 52 55 58 56 62 62 60 61 56 55 55 56 56 56 57 58 59 60 64 67 68 67 68 69 69 67 66 71 72 72 72 66 71 73 73 72 73 72 68 65 66 71 73 74 73 71 70 71
52 53 54 56 60 63 64 64 61 61 57 57 57 56 56 57 56 56 56 59 66 66 65 66 66 67 65 70 70 72 72 72 71 71 72 71 69 67 71 68 66 69 69 69 72 73 72 71 71
52 50 55 58 60 62 64 63 63 61 58 57 56 56 55 56 57 57 57 58 64 60 61 64 66 67 69 70 71 72 71 72 69 70 72 69 68 70 71 68 67 71 71 68 68 70 73 72 71
55 56 55 57 59 60 62 62 63 63 62 58 56 55 55 56 57 57 57 57 58 62 63 66 67 69 69 69 70 70 71 71 66 70 72 71 72 71 70 69 68 69 71 70 69 70 71 71 68
53 55 58 58 58 59 59 57 60 63 64 57 55 55 54 55 55 56 56 56 63 64 65 68 69 70 69 70 69 71 72 71 66 69 71 71 73 72 69 69 69 70 72 71 72 71 69 68 68
45 50 50 57 58 58 58 54 60 64 65 60 55 55 54 54 54 55 55 60 63 65 68 68 70 69 69 69 70 72 71 71 71 71 72 72 72 74 70 69 70 71 72 71 71 71 68 68 68
37 39 51 53 56 57 55 56 58 63 63 61 55 54 54 55 54 55 55 61 63 66 67 67 70 69 69 69 70 72 71 70 71 71 71 72 72 71 69 69 67 70 69 69 69 68 67 67 66
39 47 50 50 55 55 54 53 58 60 59 58 58 54 54 53 53 54 55 61 64 66 66 67 68 69 68 70 70 72 71 70 71 71 71 69 72 71 71 71 66 65 66 67 67 66 68 68 66
37 35 45 50 56 53 53 52 51 55 55 55 60 58 54 52 53 54 55 63 65 66 67 68 68 68 70 69 69 70 68 70 71 72 71 69 71 74 70 68 67 69 68 67 66 66 62 61 66
36 37 46 52 55 50 53 51 51 51 55 55 59 61 56 53 53 53 55 64 64 65 67 68 68 69 69 68 70 66 69 70 71 70 69 72 72 73 71 70 68 68 66 63 64 62 62 57 62
35 31 45 48 53 51 51 49 51 52 55 60 60 61 61 53 52 52 55 63 64 64 66 69 68 69 68 69 71 71 71 71 70 69 69 71 72 73 73 73 72 72 65 64 64 61 59 53 57
32 33 38 49 48 44 48 39 49 51 51 55 59 60 57 58 53 52 55 62 63 63 66 70 71 69 69 71 69 68 69 67 68 68 68 70 72 72 73 73 74 71 67 64 63 64 63 59 53
33 33 33 48 46 43 49 43 42 51 50 51 53 59 57 58 55 54 54 60 63 63 66 70 70 69 69 72 72 69 68 68 69 69 69 69 70 73 74 73 73 72 71 68 65 64 62 61 59
23 26 31 38 38 33 35 41 39 50 46 48 51 54 58 59 56 56 52 56 62 63 66 70 69 68 69 70 71 72 71 69 69 69 69 69 70 71 74 74 73 72 71 70 67 66 60 59 60
22 23 23 30 34 31 32 40 36 47 48 50 52 52 55 59 56 57 53 54 60 63 66 70 68 67 69 69 71 72 70 71 70 69 69 70 69 70 72 74 74 73 73 71 69 68 66 63 57
16 20 23 23 31 32 32 31 33 39 46 51 52 53 57 59 59 57 55 54 59 63 65 69 69 68 69 70 70 72 73 72 70 70 70 69 69 70 73 74 74 75 75 72 72 69 69 67 64
10 17 24 25 34 28 30 30 40 47 47 49 53 54 57 58 58 57 58 55 57 61 64 66 70 69 69 70 71 71 73 73 71 71 70 70 70 70 73 74 75 75 75 74 73 71 70 69 67
6 14 19 22 23 27 28 30 37 42 46 50 50 52 55 57 57 57 58 58 57 59 63 66 68 69 69 69 70 71 72 73 71 72 71 71 71 72 73 74 74 75 75 74 74 73 73 70 69
7 6 24 22 26 24 24 26 35 39 40 47 51 54 55 59 57 57 58 59 59 60 62 65 67 68 69 69 70 70 71 73 72 73 74 71 71 73 73 74 74 74 75 74 74 73 73 72 71
7 6 10 15 20 28 26 26 32 36 42 46 55 58 61 62 62 55 58 60 60 59 61 64 68 67 69 69 70 70 70 71 72 72 72 74 71 73 73 73 74 73 73 74 74 73 74 73 72

GFSSGP_sfc_dewp_234.txt.gz
Dewpoint
69 70 70 69 60 57 51 52 54 54 55 56 57 55 59 62 56 47 68 70 72 73 74 74 75 74 74 74 74 74 74 74 74 74 74 74 74 74 74 74 74 74 74 74 74 75 74 74 75
70 70 72 67 56 50 49 53 53 55 56 58 58 60 61 61 65 66 67 71 73 73 74 74 75 75 75 75 74 74 74 74 74 74 74 74 74 74 73 73 73 73 74 74 74 74 75 73 73
72 73 66 62 57 49 49 54 54 55 56 56 58 61 62 61 65 67 69 72 73 73 74 73 74 75 75 75 75 74 74 74 74 74 74 74 74 73 73 73 73 73 73 73 73 73 74 74 73
71 70 67 58 53 52 54 54 55 56 57 59 60 60 63 66 66 69 71 72 72 73 73 75 75 75 74 75 74 74 74 74 74 74 74 74 74 73 73 73 73 74 73 73 73 73 73 73 74
71 66 58 56 53 54 55 55 56 57 57 58 59 61 62 67 69 70 71 72 72 73 73 74 76 75 75 74 73 74 74 74 74 74 74 74 74 73 73 73 72 73 73 73 73 73 72 72 73
65 64 56 52 53 54 56 59 59 58 59 60 60 61 63 68 67 70 71 71 72 72 72 74 75 74 74 74 72 73 73 74 74 74 74 73 72 72 72 72 72 72 72 73 73 72 72 72 72
64 60 56 57 55 57 58 62 57 57 57 57 61 60 64 66 69 70 71 72 72 72 73 73 73 73 73 72 73 73 73 73 73 73 72 72 72 71 71 72 72 72 72 72 73 72 72 71 72
65 62 57 56 55 57 60 60 58 57 56 60 62 60 61 67 70 70 71 71 72 72 72 72 72 72 72 72 74 73 73 72 72 72 72 72 72 73 73 73 74 71 71 71 72 72 71 72 73
65 58 54 54 56 59 61 58 59 58 57 58 59 62 65 69 68 69 70 70 71 71 72 72 71 72 72 73 72 74 73 73 72 72 72 72 72 73 72 72 72 72 72 72 72 72 71 72 73
62 55 53 58 60 60 61 61 61 56 56 60 63 66 67 67 67 67 67 67 69 69 71 71 70 71 71 72 72 73 73 73 72 72 73 73 73 73 73 74 72 72 73 72 72 71 71 73 71
61 53 55 58 60 62 61 61 61 56 56 58 62 65 66 66 66 65 65 67 68 69 70 70 70 70 70 70 71 72 72 72 66 71 72 73 74 73 69 69 70 73 74 73 73 73 72 71 71
55 55 56 58 62 62 62 63 62 63 63 61 64 66 66 66 65 64 64 65 67 68 69 69 69 69 69 68 70 71 72 70 70 72 72 72 72 70 68 68 69 71 72 73 73 72 72 71 70
55 55 58 61 61 62 62 62 62 62 63 60 64 65 65 65 64 63 63 65 67 67 67 68 69 69 68 69 70 71 72 71 70 71 72 69 69 70 69 66 68 70 71 72 72 72 71 71 71
58 58 60 62 62 60 59 61 61 63 64 61 63 63 64 64 62 62 63 64 67 67 66 67 68 69 67 69 70 71 72 72 70 72 71 69 68 70 70 67 69 71 71 70 70 70 71 72 72
58 56 58 60 61 60 61 58 59 63 63 58 61 62 62 62 60 60 62 64 66 65 64 65 67 67 68 70 71 71 72 71 68 71 72 71 70 71 70 68 68 71 71 71 70 71 72 71 70
52 52 51 57 59 60 58 53 60 63 63 59 56 58 59 58 57 58 60 64 65 63 64 66 66 68 69 69 70 71 72 71 66 69 72 72 72 72 70 69 69 71 72 71 71 71 70 69 68
41 46 49 53 58 59 58 53 61 63 63 60 55 56 56 56 57 58 58 62 63 63 65 66 68 69 69 69 70 72 71 71 71 71 72 73 72 73 71 69 70 72 72 72 71 71 71 69 69
42 48 49 50 55 57 56 54 58 62 63 61 56 55 55 56 56 57 58 60 63 64 65 67 69 69 70 70 71 72 71 71 72 72 72 73 73 74 71 70 70 71 71 70 70 70 70 69 68
40 38 37 50 56 52 52 52 57 61 63 61 60 55 54 54 56 57 58 61 63 65 66 68 69 69 69 70 70 71 70 71 71 73 73 73 72 71 71 69 69 70 69 69 69 67 67 67 68
39 38 38 53 55 49 51 51 54 59 61 59 58 58 55 54 54 56 58 62 64 65 67 69 69 69 69 69 70 69 70 71 72 72 72 72 72 72 70 68 68 69 68 67 68 68 63 63 65
37 37 37 42 53 51 50 47 50 53 58 58 57 57 59 55 53 55 58 62 64 65 67 68 68 68 69 69 71 71 72 71 71 70 70 73 74 72 70 69 69 69 67 65 65 65 64 61 62
36 36 36 51 46 40 47 36 46 50 52 54 54 55 56 55 54 55 57 61 64 65 66 68 68 68 69 69 71 70 69 69 70 70 71 72 74 72 71 70 72 69 66 67 66 65 65 62 61
36 36 35 47 45 45 46 42 41 48 49 50 53 54 56 57 53 54 56 60 63 65 66 67 68 68 68 70 70 70 70 70 70 70 70 72 74 74 74 74 73 70 67 67 66 67 66 63 60
31 23 32 40 41 38 39 40 35 48 46 49 52 54 58 58 53 54 56 60 62 64 66 67 68 68 68 69 70 70 70 69 69 69 69 70 72 73 74 74 74 71 69 67 66 66 64 64 63
22 19 18 28 35 35 39 42 35 42 49 47 49 53 56 60 53 54 55 60 62 63 65 67 68 68 68 69 70 69 70 70 69 69 69 70 71 72 74 74 74 73 72 71 68 66 64 63 63
20 19 18 18 31 31 39 36 35 41 43 47 48 50 55 59 55 53 54 59 61 63 65 67 68 68 68 69 71 72 72 70 70 70 69 69 70 71 74 74 74 73 72 71 70 68 67 66 63
14 17 20 19 28 26 29 32 32 35 42 46 49 52 56 57 57 53 54 57 60 62 63 66 67 68 68 69 70 71 72 72 71 70 71 70 71 71 73 74 74 74 74 73 71 71 69 69 68
13 15 13 18 14 20 21 30 29 35 41 50 49 51 56 58 58 55 53 56 59 62 63 66 67 67 67 68 69 70 71 72 72 71 71 71 71 71 72 74 74 74 75 74 73 72 71 70 70
7 9 17 19 18 16 17 20 32 36 42 50 53 53 53 58 58 57 54 55 60 63 63 65 67 67 67 68 68 69 70 72 73 72 71 71 71 72 72 72 74 74 75 75 74 74 73 72 73
7 6 12 11 10 25 22 20 31 38 40 51 54 57 58 59 58 58 56 56 62 63 64 66 67 68 67 69 69 68 70 72 72 72 72 72 71 72 72 73 73 74 74 75 74 74 74 74 73

GFSSGP_sfc_dewp_240.txt.gz
Dewpoint
70 68 69 69 63 59 47 50 49 49 49 50 51 54 57 58 53 52 66 66 66 67 70 71 74 74 74 74 74 74 73 73 74 74 75 75 74 75 75 74 75 75 75 74 75 75 75 75 75
66 69 71 67 58 46 48 48 49 51 52 52 57 58 58 58 60 62 63 66 66 67 69 70 75 75 75 74 74 73 74 74 74 74 74 74 74 75 75 75 75 75 75 75 74 75 75 75 75
69 71 68 64 53 46 48 49 51 53 53 55 58 59 59 60 60 60 64 66 66 67 67 72 74 74 74 74 74 74 74 74 74 74 74 74 74 74 74 74 74 75 74 75 75 74 74 74 74
71 70 66 61 49 51 52 53 53 53 53 56 58 58 60 61 61 62 66 65 66 67 69 74 75 75 74 74 74 74 74 74 74 74 74 74 74 74 74 74 74 74 74 75 74 74 75 75 75
69 65 61 52 51 53 55 55 55 54 54 56 56 55 58 63 64 64 65 64 65 66 68 71 74 75 75 74 74 74 74 74 74 74 73 74 73 74 74 74 75 74 74 74 74 74 74 74 74
65 63 57 51 52 54 55 56 56 56 57 56 55 56 62 64 62 63 64 64 62 66 68 71 74 75 75 74 74 74 74 74 74 74 74 74 74 74 73 73 74 74 74 74 74 74 74 75 74
62 62 55 52 54 55 56 57 55 56 56 56 55 53 62 62 62 63 64 64 63 64 66 69 70 74 72 74 74 74 74 74 74 74 73 73 72 72 72 73 73 74 74 74 74 73 74 74 74
63 62 54 53 53 56 58 55 54 53 56 58 55 53 60 61 63 63 64 64 64 66 67 67 70 68 66 68 73 74 74 73 73 72 72 72 72 72 72 73 73 73 74 73 74 73 74 74 75
62 56 55 54 53 56 56 55 56 56 55 55 57 53 57 61 62 61 62 63 64 65 64 65 66 68 70 69 71 73 73 73 73 73 73 72 69 69 70 72 73 72 72 73 73 73 74 73 74
61 53 53 58 58 56 56 55 53 55 56 57 57 58 59 60 60 60 60 60 61 63 63 63 64 66 67 64 70 73 72 73 75 73 73 68 69 71 68 71 72 72 72 73 72 73 73 73 65
59 52 55 57 59 59 57 57 54 54 56 58 58 60 60 60 58 58 58 57 59 62 61 63 65 68 66 68 69 69 69 71 72 75 75 73 70 71 69 69 69 70 72 67 68 69 66 68 65
54 56 54 58 59 59 59 59 55 55 59 57 59 59 58 58 56 56 57 59 59 61 61 62 66 69 69 69 68 69 69 70 68 71 75 77 71 70 70 71 69 70 67 69 68 67 68 67 68
53 53 55 57 59 59 61 59 59 61 58 57 57 58 57 56 56 56 57 59 59 61 62 64 68 70 70 71 70 73 69 68 70 71 73 70 68 70 68 69 68 68 68 67 68 68 68 70 68
53 54 56 57 60 60 59 60 60 61 59 59 58 58 58 58 56 54 55 57 58 60 62 64 66 70 70 71 73 72 70 71 70 70 71 73 67 70 69 68 67 67 66 66 67 68 69 69 67
55 55 56 57 58 57 58 58 57 62 60 60 58 57 58 60 59 54 54 57 57 59 61 64 68 70 72 73 73 72 70 69 69 70 73 73 71 72 71 68 66 66 68 71 71 71 70 69 66
51 52 48 56 57 58 57 52 58 61 59 60 57 56 58 60 59 59 58 57 58 60 65 67 65 69 71 72 72 70 70 69 68 69 70 72 72 73 71 68 68 69 69 68 68 69 69 68 67
48 42 44 50 56 56 55 52 59 59 59 59 58 57 57 59 60 61 59 57 59 63 67 69 69 69 70 73 71 71 73 70 69 70 69 74 73 72 70 66 69 73 68 68 68 69 70 66 67
35 39 41 41 50 55 55 53 57 58 57 59 58 58 57 57 58 59 61 61 61 65 68 70 70 71 73 72 73 68 68 69 69 69 70 74 72 74 71 68 71 71 68 68 69 72 70 68 66
39 39 39 39 49 51 51 52 52 58 57 56 58 58 57 56 57 58 60 62 62 65 68 70 71 74 72 70 69 69 65 67 68 70 74 75 73 74 74 69 72 72 70 71 74 72 72 65 69
41 39 39 43 48 49 46 45 49 53 57 56 58 57 56 55 55 58 59 61 62 65 67 70 71 74 73 70 71 71 66 67 68 70 73 73 73 73 72 71 71 72 69 73 74 74 66 66 69
39 37 38 38 45 46 45 44 45 50 55 57 58 58 57 55 54 57 59 60 62 64 67 69 71 73 73 72 72 71 72 70 69 70 68 70 73 73 71 73 71 74 71 66 72 72 71 63 68
37 39 38 38 41 35 42 36 45 48 53 56 57 57 56 57 55 56 59 60 60 62 65 68 71 73 73 74 73 74 67 66 66 68 68 69 71 73 73 72 72 73 67 70 70 69 71 71 64
35 37 39 38 39 36 37 36 38 46 50 53 56 57 57 57 56 55 57 60 60 61 63 66 70 73 73 74 73 72 71 66 67 66 73 74 74 74 72 73 74 75 69 71 72 72 72 67 65
36 37 38 38 36 33 35 34 33 39 44 49 54 56 57 57 57 56 57 59 61 61 61 64 70 73 74 74 74 74 73 71 67 70 70 69 68 70 74 73 76 76 74 72 70 73 73 71 69
34 34 32 31 31 31 34 34 35 37 41 45 50 54 55 57 58 58 57 57 59 61 62 63 68 72 73 73 72 73 73 74 75 73 70 70 66 66 74 77 77 75 77 75 73 73 71 71 68
32 30 29 30 26 26 34 33 34 37 39 41 47 51 54 55 57 58 57 58 59 60 62 64 67 71 71 71 72 74 75 70 70 74 68 68 66 67 74 75 75 76 76 76 76 71 70 70 67
29 29 27 26 28 25 28 34 35 37 34 37 45 47 52 53 55 57 58 58 59 60 62 63 66 70 71 71 71 74 75 75 72 73 75 70 73 69 73 73 74 75 76 76 77 72 73 71 70
24 26 24 25 28 27 27 31 32 35 35 38 40 42 48 52 52 54 57 59 59 60 62 64 65 69 69 69 70 71 73 74 74 75 76 74 73 74 73 74 73 74 75 76 77 74 75 74 71
18 21 24 21 24 24 23 26 34 36 35 36 38 41 46 50 51 53 55 57 60 60 61 63 64 68 68 70 71 72 71 73 74 73 74 75 75 76 74 75 75 74 74 76 77 77 74 75 75
13 17 22 22 26 22 21 22 31 37 39 45 47 53 51 49 51 53 56 57 61 61 61 63 64 66 70 72 74 71 70 71 71 73 72 74 75 75 75 75 75 75 75 76 76 76 74 75 74

GFSSGP_sfc_dewp_243.txt.gz
Dewpoint
69 68 67 68 65 59 45 45 47 47 47 49 51 53 54 57 55 55 63 62 64 67 69 70 74 74 74 74 74 73 73 74 74 74 74 74 75 75 75 75 76 76 75 75 75 75 76 76 76
65 67 69 69 61 46 44 45 47 49 49 55 55 54 53 53 57 59 60 62 65 65 69 70 74 74 73 74 74 73 73 74 74 74 74 75 75 75 75 75 75 75 74 75 75 75 75 75 75
69 69 69 65 55 44 44 48 50 50 54 55 56 57 54 54 56 58 61 63 66 67 67 72 74 75 74 74 74 74 74 74 74 74 74 74 74 74 74 75 75 75 74 74 74 74 74 75 75
69 69 66 60 51 45 47 49 52 51 53 55 56 54 54 58 58 60 61 61 62 66 68 73 74 74 74 74 74 74 74 74 74 74 74 74 74 74 74 75 74 74 74 74 75 74 75 74 73
69 65 62 57 49 50 51 53 53 52 54 54 53 53 56 58 60 61 61 60 62 66 68 72 75 75 74 74 74 74 74 74 74 74 74 74 74 74 74 74 74 75 74 74 75 74 74 73 73
67 62 58 49 50 51 53 54 54 53 54 54 53 54 57 60 59 59 60 60 60 61 68 71 75 75 75 74 74 74 74 74 74 74 74 74 74 74 74 74 74 74 74 75 75 75 74 74 73
64 61 57 51 52 54 54 55 54 52 52 52 54 54 57 58 59 59 60 59 61 63 65 68 70 73 74 74 74 74 74 74 74 74 74 74 74 73 73 74 74 74 74 74 74 75 74 74 74
62 60 57 51 53 54 55 52 51 50 53 54 54 54 55 57 58 59 60 60 61 62 62 65 68 66 69 70 74 74 74 74 73 72 72 72 72 72 72 74 74 74 74 74 74 74 74 75 74
60 58 56 53 53 54 55 52 53 53 53 53 53 53 56 58 58 58 59 60 62 63 62 63 64 66 68 69 72 73 73 72 72 72 73 72 68 70 70 74 73 74 73 73 73 74 74 74 75
58 56 52 56 55 54 54 54 53 51 52 52 50 54 56 57 57 57 58 58 59 59 59 61 62 64 64 62 71 69 70 74 72 73 73 73 73 73 69 72 73 72 73 73 72 73 74 74 67
56 51 53 54 56 56 54 53 53 53 53 53 53 54 55 56 57 56 56 57 58 59 59 61 62 64 63 66 69 68 69 70 71 74 73 75 70 71 67 69 69 70 72 66 68 67 69 67 62
54 53 53 56 56 56 57 57 53 56 54 54 54 54 54 54 54 55 55 56 58 59 60 61 64 68 70 68 72 71 68 70 69 71 75 72 72 73 71 67 68 69 69 67 66 64 67 65 65
55 53 54 57 56 58 59 58 58 58 54 55 55 54 53 51 52 54 55 56 58 59 61 64 67 70 70 73 71 74 64 69 69 69 74 75 71 73 72 69 66 66 67 66 65 68 68 66 64
54 51 52 53 57 58 57 58 59 58 54 54 53 51 51 51 52 53 55 56 59 60 61 65 68 70 70 75 72 70 72 69 72 69 70 70 68 71 68 68 66 65 65 65 65 68 68 65 62
49 50 51 52 55 55 56 55 55 59 55 52 53 51 52 52 52 53 54 57 58 60 62 65 67 69 71 73 72 73 68 69 67 71 72 72 72 72 74 66 65 64 68 69 71 71 67 63 62
47 48 46 51 53 54 54 55 58 59 57 54 53 52 54 54 52 51 54 56 58 59 63 65 63 68 70 72 71 73 69 66 66 67 70 72 72 72 72 65 64 67 68 66 65 66 63 63 62
46 42 49 57 50 54 52 55 58 58 58 56 52 52 54 55 56 54 53 55 56 61 65 67 67 67 69 72 70 76 72 70 66 67 68 72 71 71 69 65 69 73 66 70 64 64 67 64 63
41 39 46 43 47 50 51 50 54 56 55 57 53 52 53 54 56 57 55 54 56 62 67 68 67 70 72 70 73 69 68 69 66 67 71 72 71 72 71 67 71 72 65 66 66 73 65 67 63
39 37 35 39 44 47 47 48 53 54 54 56 55 52 52 54 55 57 57 58 58 63 67 69 69 74 71 68 67 67 70 69 73 73 72 73 72 72 73 67 70 73 67 73 71 68 69 63 65
41 37 36 40 43 44 44 44 46 53 54 55 57 53 52 51 54 57 59 60 60 64 67 69 70 73 72 68 69 72 72 70 70 73 72 72 72 73 71 73 71 72 70 72 73 73 65 63 66
39 36 35 37 43 42 40 41 41 47 54 56 57 57 54 51 52 55 59 60 60 64 67 69 71 73 73 73 69 73 76 68 67 69 68 69 72 72 71 71 71 73 74 68 73 72 71 65 65
33 36 36 37 37 33 40 35 43 44 50 54 55 56 56 54 52 55 56 59 60 63 65 69 71 74 73 74 73 76 70 65 63 65 66 69 71 71 71 71 72 73 68 76 71 69 72 72 65
32 35 36 35 33 33 37 32 37 45 46 50 53 57 56 56 52 53 55 58 59 61 64 67 72 74 76 75 75 71 72 65 65 63 75 76 75 71 69 72 73 75 71 71 73 72 74 69 66
33 32 33 38 31 31 33 31 32 40 44 47 52 54 56 55 55 53 55 58 58 60 61 65 73 76 75 74 74 77 76 73 64 68 68 67 69 70 72 72 75 76 74 72 71 74 74 74 72
30 30 29 31 29 28 31 29 32 38 40 44 50 53 55 55 55 54 55 56 59 59 61 63 71 74 73 73 73 74 76 76 76 73 67 70 63 65 77 77 77 74 77 75 74 75 74 73 71
27 28 28 31 27 26 31 31 33 36 38 40 47 52 53 53 55 56 53 55 58 59 60 62 69 73 74 72 74 76 77 70 70 74 67 65 63 65 78 76 74 74 75 75 76 72 69 74 70
26 26 28 27 28 24 26 31 35 37 36 39 43 48 52 52 53 56 55 54 57 58 60 61 67 71 72 71 74 76 76 77 71 75 77 70 74 66 72 74 74 73 74 75 76 72 73 72 72
24 26 25 27 30 28 25 29 31 36 36 37 43 45 50 53 52 54 56 56 55 56 58 60 63 69 69 69 73 74 75 76 76 77 76 75 74 72 74 73 73 73 73 74 76 74 75 74 71
20 23 26 23 24 24 24 26 33 36 38 38 38 41 45 51 52 52 54 57 57 55 56 58 61 65 69 71 72 74 72 75 76 73 74 75 75 77 75 75 74 73 73 74 76 77 75 75 75
17 22 24 23 28 22 23 24 24 35 37 38 40 49 47 45 50 51 53 54 58 58 57 58 62 64 70 73 74 72 71 73 72 75 75 74 75 77 76 75 76 75 74 76 76 74 73 73 72

GFSSGP_sfc_dewp_249.txt.gz
Dewpoint
69 69 70 70 62 61 46 47 49 51 50 53 54 54 55 57 53 55 67 68 70 71 72 73 76 75 75 74 75 77 76 75 75 75 76 76 76 76 75 75 75 75 75 75 75 75 75 75 74
67 67 72 68 59 48 48 49 52 52 51 53 54 55 57 57 61 64 65 68 70 70 71 73 76 76 74 75 75 76 75 75 75 75 76 76 76 76 76 75 76 76 76 76 75 75 74 74 74
68 69 63 62 58 47 47 52 54 55 52 52 52 53 55 59 62 63 66 68 69 70 71 73 75 75 74 74 76 76 75 75 75 75 75 76 76 76 76 76 75 76 75 75 75 75 75 74 73
70 70 68 60 54 49 48 53 54 51 51 53 54 54 59 63 63 63 66 68 69 71 72 75 75 74 75 75 76 76 76 75 75 75 75 76 75 76 76 75 76 76 75 75 75 73 72 72 73
71 69 61 57 53 50 52 53 53 51 52 53 55 54 55 61 63 65 66 68 69 71 72 73 76 75 75 75 75 76 75 76 76 75 75 75 76 76 76 75 75 76 75 75 74 73 72 71 72
67 64 58 55 50 50 51 55 53 52 53 54 55 54 55 59 63 65 66 68 69 70 72 72 76 76 75 75 75 75 75 75 75 75 75 75 75 76 77 77 76 75 76 75 74 73 72 71 71
65 62 58 54 52 54 52 55 52 52 52 53 55 54 56 56 62 63 64 66 69 70 71 73 73 74 75 75 75 76 75 75 75 74 75 75 75 75 75 76 77 75 75 75 74 74 73 72 72
65 61 59 59 56 52 53 50 50 52 53 55 55 53 52 56 62 62 65 66 68 69 71 71 72 73 73 73 76 76 76 74 74 75 75 74 74 75 75 76 77 75 75 74 73 73 73 75 75
65 60 56 58 57 51 50 49 51 54 53 54 54 54 55 57 60 61 63 64 64 67 69 71 71 72 72 73 73 76 75 74 73 73 73 74 71 72 73 75 75 75 74 73 73 73 75 76 77
62 58 55 57 61 54 51 48 49 50 52 53 53 54 55 56 58 59 60 59 63 65 66 68 69 71 71 71 73 72 71 71 71 72 71 72 71 71 72 74 74 74 74 73 73 75 76 75 72
63 57 63 60 60 61 50 54 54 48 50 52 53 53 54 55 57 57 57 60 62 63 64 63 66 69 68 70 71 71 71 73 73 72 72 72 72 72 71 71 71 72 73 71 73 72 72 71 70
56 60 63 63 63 57 57 57 55 50 52 53 54 54 54 55 55 56 59 59 57 59 59 62 65 66 68 71 73 72 73 73 72 71 71 72 71 71 71 71 70 70 70 71 68 69 69 69 70
54 56 59 58 58 57 58 58 55 51 53 53 53 54 54 54 55 55 57 57 58 59 63 67 70 69 68 71 73 72 71 73 72 71 73 73 71 71 70 70 71 70 70 71 68 68 68 68 66
56 54 56 60 57 57 58 59 57 53 52 52 53 53 53 54 55 55 56 57 60 64 66 68 70 71 70 69 70 71 70 70 72 71 72 71 72 72 72 71 70 69 69 69 69 68 68 67 67
55 55 58 59 57 59 58 59 55 53 51 51 51 52 53 53 55 55 57 57 60 64 67 68 68 71 71 72 72 70 71 71 70 71 73 72 71 71 70 70 70 69 71 68 69 70 71 70 66
52 57 55 59 59 57 55 56 61 59 50 50 50 50 52 53 54 55 58 58 60 64 66 65 67 70 71 71 73 73 71 71 71 73 72 72 71 72 71 68 69 68 67 68 68 68 69 69 66
48 48 54 58 56 57 54 56 60 54 51 50 50 49 50 51 54 56 59 59 61 65 66 66 67 68 71 73 73 72 71 70 71 71 72 70 70 72 72 68 68 69 68 69 69 69 70 65 66
40 46 52 52 52 54 54 56 57 51 50 50 50 50 50 52 53 55 56 59 65 66 66 67 68 68 72 72 71 72 74 71 70 71 71 72 72 72 72 72 69 70 72 70 72 68 66 68 69
38 39 49 50 50 51 51 55 57 54 49 48 48 51 51 50 53 54 55 59 65 65 65 68 69 70 71 71 71 71 69 72 70 70 71 71 72 72 73 72 71 73 73 72 68 66 65 66 69
30 40 39 42 50 50 50 53 57 55 54 48 48 51 52 52 50 52 54 59 63 65 66 70 70 72 70 71 71 70 71 71 70 71 71 74 71 72 72 72 70 71 74 69 68 70 70 71 68
27 33 40 41 44 47 48 53 55 55 55 51 49 51 51 53 50 51 53 57 62 65 67 70 69 71 72 70 72 73 73 72 71 72 73 73 73 73 72 73 71 73 73 71 70 70 70 67 70
25 27 31 45 44 44 41 37 52 54 53 55 53 51 50 52 54 54 55 56 63 66 68 71 71 71 71 74 71 70 70 68 69 70 71 71 74 72 73 71 74 73 73 72 71 71 71 70 65
25 27 26 36 43 40 38 36 37 51 51 55 54 53 51 51 55 55 54 56 63 65 68 71 71 71 69 72 72 71 70 68 69 70 71 72 72 71 72 71 72 71 72 73 73 72 70 70 71
23 26 25 27 41 37 37 36 35 47 50 53 55 55 53 51 54 56 55 58 63 65 67 68 71 70 71 72 73 71 71 68 70 69 69 70 71 72 72 71 72 73 73 70 70 72 72 72 72
7 21 23 24 29 34 36 35 35 47 51 54 55 55 55 55 53 55 57 59 61 64 66 68 72 70 70 73 73 72 72 72 70 68 68 69 70 71 73 73 73 74 74 73 71 72 72 73 71
5 18 23 23 26 31 34 33 32 44 46 54 55 56 56 55 53 55 57 58 60 63 66 68 70 71 70 73 72 72 73 73 73 72 70 68 69 69 73 74 75 74 75 75 72 73 71 71 73
3 5 20 22 22 23 30 33 35 43 45 47 54 55 55 56 55 54 56 58 58 62 65 68 69 70 71 72 72 73 74 73 73 73 71 71 72 70 73 74 75 75 76 75 75 74 73 70 70
2 4 16 22 20 21 26 31 32 38 40 44 49 55 56 56 56 53 55 58 58 60 64 68 70 70 72 71 73 73 73 74 73 75 73 71 73 73 75 75 75 75 74 75 75 75 75 72 72
6 3 6 20 25 23 24 28 34 35 38 42 48 54 56 57 56 55 55 57 58 58 62 68 69 70 71 71 73 72 73 74 74 74 73 74 72 76 74 74 74 75 73 75 75 74 73 74 73
12 7 10 18 24 26 25 22 37 38 44 37 42 55 57 58 57 57 55 57 57 57 59 65 69 70 70 71 71 72 73 73 73 74 73 74 74 75 75 74 74 74 74 74 74 73 72 73 74

GFSSGP_sfc_dewp_252.txt.gz
Dewpoint
69 70 72 70 60 58 49 52 51 51 52 55 55 53 55 58 54 52 67 70 71 72 73 73 76 75 75 75 75 75 75 75 75 76 76 76 74 73 73 76 76 75 75 75 75 75 75 75 74
67 69 71 68 57 46 49 50 51 53 55 57 57 58 59 60 64 66 68 70 71 72 73 73 76 76 74 75 76 76 75 75 75 75 77 77 75 74 76 76 76 75 76 75 75 74 74 74 74
67 69 64 62 58 48 50 50 51 53 54 53 54 58 60 62 65 66 69 70 71 71 73 73 76 75 73 75 76 76 76 75 75 76 75 75 76 76 75 76 76 75 75 75 74 74 74 74 74
71 68 67 59 53 51 52 53 51 53 54 55 57 57 62 64 64 67 69 70 70 71 73 75 76 74 74 74 75 75 76 76 76 76 76 76 76 76 76 75 75 74 75 75 74 73 73 73 73
72 67 60 57 54 53 54 51 52 53 54 57 57 58 60 63 66 68 69 70 71 72 73 73 76 76 75 75 75 75 76 76 76 76 75 76 76 76 77 75 75 75 75 74 73 72 73 72 72
64 64 57 53 51 52 54 52 53 54 54 55 57 58 60 65 66 68 69 70 71 72 73 73 75 75 75 75 75 75 75 75 75 75 75 76 76 76 76 75 75 75 75 74 73 72 71 72 71
64 61 58 56 51 53 54 54 54 54 54 54 56 57 61 65 66 68 69 70 71 72 72 73 74 73 75 75 75 76 76 75 76 75 75 75 76 76 75 76 76 75 75 74 74 73 73 72 72
64 62 58 58 54 53 54 53 54 54 54 55 55 54 59 64 66 67 69 69 71 71 72 73 73 73 73 73 76 75 76 75 75 75 75 75 75 75 75 77 77 75 74 74 73 73 73 74 74
63 60 55 56 58 59 53 51 54 55 54 54 55 55 60 63 64 66 67 68 69 71 72 72 72 72 73 73 73 76 75 74 75 74 75 75 73 73 73 75 75 74 74 73 73 73 73 75 75
62 58 56 61 61 59 59 53 53 53 53 53 53 60 61 64 64 64 65 65 68 69 70 71 71 72 72 72 73 72 72 71 71 71 71 71 71 72 73 74 75 74 73 73 74 74 75 74 72
62 58 58 60 61 61 60 52 53 53 52 53 54 59 59 61 62 63 63 64 66 68 69 70 71 71 71 72 72 71 71 71 71 71 71 71 71 72 72 73 72 72 73 71 71 71 71 71 70
60 60 60 60 59 62 62 56 52 53 53 54 55 57 58 60 61 61 60 63 65 65 66 67 70 69 68 71 71 71 72 73 71 71 71 72 71 71 70 70 70 71 71 70 69 68 68 68 69
57 60 63 64 65 64 62 57 53 53 54 54 54 55 56 57 58 58 60 63 64 64 63 65 68 69 72 71 72 71 71 72 70 71 71 72 71 70 69 69 69 70 70 70 69 68 67 68 66
55 59 60 64 64 63 57 55 55 54 54 53 54 54 55 55 56 58 59 59 62 62 62 66 68 70 70 68 69 70 71 71 71 71 71 71 70 69 68 69 69 69 69 69 69 69 67 69 69
56 55 59 62 62 60 58 56 52 54 53 53 53 53 54 55 55 58 57 59 63 65 68 67 66 69 69 68 69 70 69 70 71 71 71 71 71 71 70 70 69 69 68 69 69 69 69 69 66
53 57 54 61 60 60 57 54 54 53 52 52 53 53 54 55 55 57 60 63 64 66 68 68 67 70 70 71 71 70 69 70 70 70 72 71 70 70 70 71 69 69 69 67 67 67 67 68 68
47 51 54 56 57 55 58 56 58 55 51 51 52 52 53 54 55 57 60 63 64 66 67 67 69 70 70 71 72 70 70 70 71 71 71 71 71 71 71 68 68 67 67 67 68 68 68 67 64
38 47 53 54 55 55 55 56 56 57 50 50 50 50 52 53 54 57 58 63 65 66 65 66 68 68 71 72 71 71 71 70 71 70 71 69 70 71 71 71 68 68 69 70 70 70 68 67 67
38 35 48 51 54 54 53 53 56 56 50 49 50 50 50 53 54 57 58 63 64 65 66 66 67 67 71 71 70 71 70 70 70 70 70 71 71 71 72 71 69 69 69 71 71 65 68 67 68
30 29 29 44 49 50 50 51 57 53 50 50 49 50 50 52 54 57 59 64 64 64 66 67 67 68 69 70 70 69 69 71 70 70 70 71 71 71 71 72 70 71 71 72 68 69 68 69 69
27 28 31 40 47 50 49 49 54 56 50 50 48 49 51 51 53 54 59 63 64 63 65 68 67 69 69 69 71 72 71 71 70 71 70 71 72 71 71 72 70 71 73 69 68 69 67 65 67
23 26 28 38 44 41 45 42 55 55 54 48 46 48 51 51 52 53 59 63 63 63 65 69 68 69 69 70 71 71 69 69 69 69 70 72 72 72 71 72 72 72 73 70 70 69 71 68 63
8 13 19 28 42 41 41 41 43 55 54 50 48 48 51 51 51 52 57 61 63 63 66 70 69 69 69 72 70 70 69 69 69 70 71 71 73 72 72 71 73 71 71 71 71 71 69 69 70
7 3 7 24 41 39 39 37 36 53 54 54 50 49 51 53 50 51 55 60 63 64 66 69 68 68 68 71 72 70 69 68 68 69 70 71 71 71 71 71 71 71 71 71 71 71 70 70 71
7 5 9 18 27 35 37 35 35 50 54 55 53 52 51 51 51 51 53 59 62 64 66 69 68 67 68 69 71 71 71 69 69 69 69 69 70 69 70 70 70 72 73 71 70 71 71 71 70
4 6 10 18 21 23 30 32 34 44 51 54 55 55 53 50 54 53 53 56 61 64 66 68 68 67 68 68 70 71 72 72 70 69 69 68 68 68 70 72 71 72 73 74 70 72 70 70 71
10 3 5 10 11 21 23 29 30 36 44 51 55 55 54 52 54 55 54 55 61 63 66 67 69 68 69 67 70 71 72 73 73 70 69 68 69 69 70 72 72 73 73 74 71 73 71 70 69
20 6 2 11 15 11 22 26 30 32 46 52 54 55 55 55 53 55 55 56 61 63 65 66 69 69 69 68 69 71 72 73 72 74 71 71 71 70 71 73 74 74 74 74 74 73 72 72 71
23 19 14 4 15 9 14 23 31 31 40 50 54 55 56 56 54 55 56 58 59 62 65 66 68 68 69 69 69 71 72 73 72 72 73 72 71 74 72 73 73 73 73 74 73 74 74 73 72
24 19 16 17 13 21 24 24 27 41 43 46 59 53 56 56 56 55 56 57 59 62 64 66 67 68 69 69 69 70 71 71 73 72 72 72 72 74 74 74 73 73 73 72 73 73 73 72 72

GFSSGP_sfc_dewp_258.txt.gz
Dewpoint
71 70 72 69 56 53 50 50 52 52 52 54 53 53 57 62 56 48 67 69 70 71 73 74 75 73 73 72 72 72 73 72 73 73 74 73 74 75 75 75 75 75 75 75 75 75 75 75 75
70 70 71 68 51 48 48 51 51 55 57 58 59 60 61 60 63 65 67 71 71 71 72 73 75 75 72 73 73 73 73 73 73 74 74 74 75 75 75 75 75 75 75 75 75 74 74 74 74
70 70 62 58 54 48 49 52 55 56 56 56 59 61 60 61 63 65 69 72 72 72 72 73 74 75 74 73 74 74 73 73 73 74 74 74 75 75 75 76 76 75 75 75 75 74 74 73 74
69 67 65 55 51 52 51 54 54 54 56 59 60 60 63 65 65 69 71 72 72 72 72 74 75 73 74 73 74 74 74 74 74 74 75 75 75 76 76 75 75 75 75 74 74 74 74 73 74
69 64 56 55 52 53 52 54 54 54 56 58 60 60 62 67 69 70 71 71 71 72 73 73 75 74 75 74 74 74 75 75 74 75 75 75 75 75 74 74 75 75 73 73 73 73 73 73 73
62 63 55 52 52 52 53 54 55 57 58 59 60 60 63 68 67 69 70 71 72 73 73 73 73 74 74 74 74 75 75 75 75 75 76 75 75 75 75 75 75 74 73 72 73 73 73 73 75
62 59 56 56 52 52 53 56 54 56 56 58 60 59 64 66 68 69 70 71 72 72 72 73 73 73 74 74 75 75 75 75 75 75 75 75 75 75 76 75 75 74 73 73 73 73 73 73 75
64 60 56 57 56 53 55 54 55 54 56 60 60 58 61 66 69 70 71 71 72 72 73 72 73 73 73 73 75 75 75 75 75 75 75 75 75 74 75 76 76 74 74 74 73 73 73 74 75
64 56 54 55 57 56 56 53 54 56 57 57 58 61 65 68 69 69 70 70 71 72 72 72 72 72 73 73 74 74 75 75 74 75 75 75 73 74 75 75 74 74 74 73 73 73 74 75 74
60 56 55 59 60 59 60 57 54 54 55 57 62 65 67 68 68 67 66 66 68 70 71 71 72 72 73 73 73 73 73 73 73 74 74 73 73 73 73 74 73 73 74 73 73 74 74 73 71
61 56 59 59 59 61 60 54 54 53 53 56 61 64 66 67 66 66 66 66 67 70 71 71 71 72 73 72 73 72 72 72 72 72 72 72 72 73 73 73 73 73 73 71 70 70 69 70 70
59 59 58 60 59 60 61 63 54 54 54 57 63 65 65 65 65 65 66 67 68 70 71 71 71 71 71 73 72 72 71 71 71 71 71 71 71 71 72 72 72 72 71 70 70 70 70 68 69
60 59 62 62 62 63 63 63 60 54 56 60 63 64 64 64 64 65 65 66 68 69 70 71 71 71 71 72 71 71 71 71 71 71 71 71 71 71 71 70 70 70 70 69 70 70 70 70 69
60 61 62 63 61 60 61 61 62 56 59 61 62 62 63 63 64 64 64 65 67 68 68 70 71 71 70 71 71 70 71 71 71 71 71 71 71 71 71 69 68 69 70 70 70 70 71 70 70
61 59 60 59 60 59 62 53 54 56 59 60 61 62 62 62 63 63 63 64 66 66 66 68 70 70 70 71 71 70 71 71 71 70 71 71 71 71 71 69 68 70 71 70 71 71 70 69 69
55 57 54 59 60 60 61 52 55 55 57 58 59 60 61 61 62 62 62 64 66 65 65 67 69 69 70 70 70 71 70 71 71 71 71 71 71 71 70 69 70 70 71 70 70 69 69 70 69
47 50 54 55 59 59 59 55 55 54 55 56 57 58 59 59 60 60 61 63 65 64 64 66 69 69 69 69 69 70 70 70 71 71 71 71 71 72 71 70 71 71 70 70 69 70 71 70 69
37 36 43 52 57 59 56 57 54 53 53 53 55 56 57 56 57 58 60 62 64 64 65 67 68 69 69 69 69 69 70 69 71 71 71 71 71 72 71 71 71 70 70 70 71 72 71 70 69
36 36 35 37 48 55 54 55 53 53 52 52 53 53 54 55 56 58 59 61 63 66 66 67 67 69 69 70 69 69 68 69 70 71 71 71 71 72 72 72 71 70 70 70 72 70 71 70 71
17 23 23 29 32 52 51 53 56 52 52 52 52 53 53 54 55 57 60 62 64 66 67 67 67 69 69 70 71 70 70 70 71 71 71 72 71 72 72 73 72 71 70 71 72 71 70 69 70
8 13 20 15 16 34 51 50 53 53 52 52 53 53 53 53 54 56 61 62 64 66 66 68 68 69 70 71 71 71 71 71 70 71 70 71 71 72 72 73 73 71 71 70 72 71 70 68 69
20 11 10 6 7 7 46 44 51 54 51 51 51 52 52 52 54 56 60 62 63 64 66 68 68 69 70 71 70 70 70 69 70 70 71 71 72 71 72 72 73 73 72 73 71 71 71 70 68
5 8 8 9 5 23 31 40 41 55 53 53 51 50 52 52 53 55 58 62 63 64 65 67 68 68 69 70 70 70 70 70 71 70 70 70 71 72 72 73 73 73 72 73 72 72 71 71 70
14 11 8 28 26 17 22 33 31 53 54 55 52 51 51 51 52 55 57 61 62 64 65 66 67 67 68 70 70 70 70 70 70 70 70 70 71 71 73 73 73 74 73 73 73 73 72 71 72
19 5 4 10 23 17 28 20 35 39 45 55 55 52 51 51 51 53 56 59 62 63 64 65 66 66 67 69 70 70 70 70 70 70 70 70 71 71 72 73 73 73 73 73 73 73 72 71 71
21 12 3 1 12 11 8 6 17 38 38 43 52 54 52 51 50 52 55 58 61 63 64 65 66 66 68 68 69 70 70 70 70 70 70 70 70 71 72 72 73 73 73 73 72 71 71 72 72
18 16 12 5 6 5 7 8 14 19 26 29 36 53 55 52 50 52 54 57 60 62 63 64 66 66 67 68 69 70 70 71 70 71 71 71 71 71 72 72 72 72 72 73 74 71 71 71 71
25 21 15 13 8 6 9 14 12 19 21 35 45 39 55 54 50 51 53 56 59 61 62 63 65 66 67 68 69 70 70 71 71 71 70 71 71 72 72 72 72 72 72 73 74 73 72 72 72
19 20 20 18 13 9 13 16 18 24 32 30 50 55 53 55 52 51 52 55 58 60 61 62 65 66 66 67 68 69 70 71 72 71 71 71 71 71 71 71 72 72 72 73 73 74 73 73 73
21 21 23 21 19 21 20 20 22 23 28 35 45 55 62 57 55 52 52 54 59 60 61 62 64 66 66 67 68 68 69 70 71 72 72 71 71 71 71 71 72 73 73 72 72 72 73 74 73

GFSSGP_sfc_dewp_261.txt.gz
Dewpoint
71 70 71 70 59 56 49 50 52 49 50 52 52 51 52 60 53 49 66 66 66 67 70 71 75 73 72 72 73 73 73 72 74 73 74 74 73 75 75 75 75 76 75 75 75 75 75 75 75
69 70 71 68 55 46 48 51 50 54 55 55 58 59 59 59 62 64 65 67 67 68 69 70 75 74 72 72 73 73 73 73 73 74 73 75 76 76 75 75 75 75 75 75 75 75 75 74 74
69 70 66 61 55 48 49 53 54 55 55 55 59 60 60 60 63 63 67 68 69 69 69 71 74 73 72 73 73 73 72 73 73 74 74 74 75 76 76 76 75 75 75 75 75 74 74 74 75
69 68 66 57 51 51 51 54 54 54 56 59 59 59 62 64 63 67 68 68 68 70 70 73 74 74 72 73 73 73 73 73 75 74 74 74 75 75 75 75 75 75 75 74 74 74 74 74 74
68 65 58 54 51 51 53 53 54 53 56 58 59 59 60 66 68 68 69 68 69 70 71 73 75 74 73 73 73 73 74 74 74 75 75 76 75 75 75 75 75 74 73 73 74 74 74 74 74
63 65 56 53 50 51 53 54 55 55 57 59 58 58 62 68 68 67 69 69 68 69 71 71 74 75 74 73 74 74 75 74 75 75 76 75 75 76 76 75 74 73 73 73 73 73 74 75 74
62 60 57 54 50 51 52 55 54 55 56 57 59 57 64 65 67 68 69 69 70 71 70 70 71 73 74 74 74 75 75 75 75 75 76 76 75 75 75 75 74 74 74 74 73 73 74 74 74
64 60 56 57 53 52 54 54 55 53 55 58 58 57 60 64 66 68 69 69 70 70 70 70 73 72 72 73 74 75 75 75 75 76 76 75 75 75 76 75 76 74 74 73 73 73 73 74 74
63 57 55 55 56 54 55 52 55 57 55 57 59 59 62 65 66 66 66 67 70 70 70 70 71 73 74 73 73 74 75 75 75 75 75 75 73 73 72 75 74 74 73 73 73 73 73 74 72
59 56 54 59 59 57 58 52 53 53 53 58 62 64 66 67 64 62 62 64 66 67 68 69 70 71 72 70 73 73 73 73 73 75 76 74 74 74 71 73 75 74 74 74 73 73 72 71 67
59 57 58 59 59 60 58 53 53 51 53 57 59 63 65 66 64 64 63 64 65 67 68 69 70 71 70 71 73 72 72 73 74 76 76 75 73 73 71 72 71 72 71 67 68 69 68 69 68
57 59 58 59 59 60 60 60 52 52 54 57 61 64 64 65 64 63 63 64 65 67 68 69 71 72 73 72 71 73 72 73 72 73 75 74 71 73 73 71 73 72 70 70 70 69 71 70 70
59 59 61 62 62 62 63 61 58 53 57 59 62 64 64 64 65 64 63 64 66 67 68 69 72 73 73 73 73 74 73 72 72 72 73 72 72 72 72 71 70 70 70 69 71 70 71 71 70
60 60 61 62 61 59 61 61 61 59 58 60 62 62 63 64 64 63 64 64 66 67 68 69 71 73 73 72 74 73 73 72 72 70 70 73 73 73 71 70 69 69 70 71 70 71 71 69 68
60 58 58 60 60 57 61 54 57 57 58 59 60 61 62 63 63 62 62 63 65 66 67 69 70 71 73 73 73 72 71 69 69 69 73 73 73 74 74 70 68 69 72 73 73 72 69 69 68
55 55 51 59 58 58 59 53 55 58 57 58 59 60 62 63 62 63 62 63 64 65 68 69 68 69 71 72 73 70 69 70 71 70 71 73 73 74 74 69 69 71 72 70 70 69 69 70 68
46 43 48 52 57 59 59 56 55 57 57 57 58 59 60 62 63 64 63 63 64 66 67 69 70 69 71 72 71 71 72 71 71 71 71 73 72 72 73 71 71 74 71 70 69 69 73 70 68
30 34 38 37 49 57 55 56 57 55 55 56 57 58 59 60 61 63 63 63 65 66 67 69 70 71 72 71 72 70 70 70 71 70 70 72 71 73 73 71 73 73 71 70 69 74 71 70 70
32 29 26 24 37 52 50 52 52 55 54 54 56 57 58 59 60 61 62 63 64 66 67 69 70 72 71 70 69 69 68 69 70 71 72 73 73 73 74 71 72 73 71 71 73 72 73 68 71
15 18 16 24 26 31 35 44 49 55 54 53 54 55 56 57 58 60 61 62 63 65 67 68 70 71 71 70 70 69 68 69 69 71 72 72 73 73 72 73 73 74 70 73 73 74 70 69 71
11 13 13 10 10 21 39 47 53 55 55 54 54 55 55 55 57 58 60 62 62 64 67 68 70 71 72 72 71 71 71 71 70 71 70 71 73 73 73 74 74 75 73 69 73 73 72 67 70
12 10 8 7 9 20 21 20 42 52 53 54 54 53 54 55 56 57 59 61 62 63 66 68 70 71 71 73 72 73 69 68 68 70 70 71 73 73 73 74 74 75 73 73 73 73 73 73 67
13 18 13 8 9 10 23 23 30 52 52 53 53 54 54 54 55 55 57 61 62 63 65 67 71 71 72 73 73 71 71 70 70 70 72 74 74 73 72 73 74 75 74 75 75 75 74 71 70
20 13 12 24 11 16 23 24 28 33 42 48 54 54 54 54 55 55 57 60 62 63 65 66 71 73 72 72 73 73 74 72 70 71 70 70 69 70 73 73 74 75 75 75 74 76 76 74 73
20 9 4 8 14 13 25 22 30 36 43 47 37 46 54 55 54 55 56 59 62 63 64 66 70 71 71 71 72 72 74 74 73 73 71 72 69 69 73 74 74 73 76 76 76 76 75 75 73
22 10 12 10 6 9 17 19 24 27 26 31 33 39 45 49 53 54 54 59 62 63 65 66 69 71 71 71 73 74 75 71 71 73 71 71 70 70 74 73 73 74 75 75 76 74 73 75 74
19 21 15 13 12 9 9 14 17 22 27 32 35 41 44 50 53 53 54 56 61 63 65 66 69 70 71 70 72 74 74 74 72 74 74 72 74 71 74 73 73 73 74 75 76 73 74 74 74
17 20 15 16 13 9 8 17 11 28 32 35 41 43 49 55 55 59 54 56 59 61 64 65 66 69 69 69 71 72 73 74 74 74 73 74 74 75 73 74 73 74 75 75 75 73 74 75 73
21 22 23 19 18 13 11 11 25 30 32 37 39 44 50 54 59 62 57 54 58 59 62 64 65 68 69 70 71 72 71 73 73 73 73 73 74 75 75 75 74 74 75 75 75 75 74 74 75
22 25 23 21 22 23 22 17 20 29 26 34 39 48 53 55 60 63 59 54 56 59 61 63 65 67 69 71 71 71 71 72 71 73 73 73 74 74 74 74 74 74 74 75 75 74 72 73 74

GFSSGP_sfc_dewp_264.txt.gz
Dewpoint
71 69 70 69 58 48 44 48 48 48 49 50 50 49 52 55 52 54 63 62 64 66 68 70 73 73 73 73 72 73 73 74 74 74 73 74 75 75 75 76 76 77 76 75 75 75 75 75 75
67 70 70 66 50 38 44 46 48 51 50 51 54 53 53 56 60 61 61 63 64 66 68 69 73 73 73 73 73 73 73 74 74 74 74 75 75 76 75 75 75 75 75 75 75 75 75 75 74
69 70 66 58 47 42 43 49 52 52 52 52 55 56 57 60 60 60 63 64 64 66 68 71 73 73 73 73 73 73 74 74 74 74 75 76 76 76 75 75 75 75 75 75 75 75 75 75 75
70 66 64 50 47 49 49 51 53 53 54 54 56 57 61 62 61 63 64 64 66 66 68 73 74 73 73 73 72 73 74 74 74 75 75 75 75 76 75 75 75 75 75 75 74 74 74 75 74
67 64 55 50 49 50 51 52 52 51 53 55 55 56 59 63 64 65 65 64 66 67 68 71 74 74 73 74 74 74 74 74 74 75 74 75 75 75 76 75 74 74 74 74 74 75 75 75 74
63 63 52 50 50 51 52 52 52 52 54 56 55 55 62 65 64 64 65 66 64 66 67 69 74 74 73 74 75 75 74 75 75 75 75 75 75 75 75 74 73 73 74 74 74 75 75 74 74
60 58 54 51 51 52 52 53 51 50 53 53 55 54 62 62 63 64 66 65 65 66 66 67 69 73 74 74 75 75 74 75 76 76 76 75 75 75 75 74 74 74 74 74 73 74 74 74 74
63 60 57 53 51 52 54 52 51 50 53 57 55 53 57 60 63 64 65 65 66 66 65 66 69 69 70 70 74 74 75 75 76 75 75 75 75 75 74 75 75 74 74 73 73 73 73 73 74
61 56 56 55 53 53 54 50 53 54 53 54 56 54 59 61 62 61 62 63 65 65 64 65 66 70 71 71 73 73 75 75 75 75 75 74 68 69 71 74 74 73 73 73 73 73 73 72 73
57 55 54 58 57 54 55 51 53 50 52 55 57 59 61 61 60 60 60 60 63 64 63 64 65 68 69 66 72 71 71 69 71 75 73 69 70 71 69 73 74 74 72 71 70 70 72 72 64
57 55 57 58 57 57 55 52 52 51 50 53 57 59 61 60 60 59 58 59 62 64 63 64 65 68 65 68 68 68 69 69 72 75 74 72 71 70 67 68 67 69 70 65 67 68 67 68 67
55 57 57 58 57 57 55 56 52 52 53 54 56 59 60 59 57 57 57 60 61 63 63 64 66 67 67 67 67 68 68 69 68 70 74 72 69 70 70 67 69 70 67 70 69 67 70 69 68
55 57 58 59 59 59 60 57 55 53 55 54 57 59 58 58 58 58 58 60 62 63 64 65 68 70 70 71 69 70 68 68 68 70 72 70 69 70 68 69 68 69 69 68 68 69 70 69 65
55 57 59 62 60 61 61 61 60 56 56 56 59 59 60 60 60 59 59 59 62 63 64 65 68 70 70 70 72 71 69 69 69 67 69 72 71 71 68 68 68 69 70 68 69 71 69 67 64
57 55 58 59 60 57 58 55 56 58 57 56 57 59 60 61 60 59 59 60 62 63 64 66 68 69 70 71 72 70 69 67 66 66 71 72 72 73 73 69 68 69 71 72 71 70 67 66 64
50 51 49 56 58 56 57 54 55 58 56 56 55 57 58 60 60 58 58 59 61 62 65 66 65 66 69 70 70 68 67 66 65 66 68 72 72 73 73 68 67 70 70 68 67 66 67 65 64
41 43 46 50 54 55 56 55 55 57 56 56 56 55 57 58 59 60 60 59 60 62 66 67 68 66 68 71 69 70 70 68 66 66 67 72 71 71 71 67 68 73 68 68 66 67 69 66 66
35 37 39 32 39 47 45 47 54 55 55 55 55 55 57 57 58 60 60 61 61 62 65 68 68 69 70 69 70 68 68 68 67 66 67 71 70 71 71 68 71 71 68 67 69 74 70 68 67
35 38 35 28 35 34 32 37 44 54 54 55 55 55 56 56 57 59 61 61 62 63 65 68 70 72 70 69 68 68 68 68 68 67 70 72 70 70 72 67 68 69 68 71 72 71 71 66 67
32 31 33 32 22 18 28 34 43 49 54 54 55 54 55 55 55 58 61 61 62 64 66 68 70 72 72 69 70 69 69 68 68 68 71 72 71 71 71 71 68 68 66 71 73 74 68 67 68
26 26 26 21 23 28 35 34 45 52 54 55 54 55 55 55 54 57 60 62 61 63 67 68 71 72 73 72 70 70 70 70 69 69 69 71 71 71 72 72 70 72 71 65 72 71 73 65 67
15 14 14 15 18 31 26 28 34 45 51 53 54 54 54 56 56 56 58 61 61 62 64 68 70 72 72 73 71 72 68 67 66 68 68 68 71 70 71 73 73 73 67 70 70 70 73 72 63
12 14 13 12 14 18 27 28 32 38 41 46 49 52 53 55 56 56 56 59 61 61 62 66 70 72 72 73 73 70 71 67 67 66 70 73 72 71 71 72 73 74 72 73 74 73 75 70 67
16 11 11 10 7 9 21 28 30 32 37 39 42 48 52 53 55 56 57 58 59 61 61 64 71 73 73 73 73 73 74 71 67 69 67 68 67 68 72 72 73 74 73 74 74 75 75 73 72
14 7 3 7 3 5 11 18 27 33 37 33 33 37 44 46 50 53 57 58 59 60 61 62 69 72 72 72 72 73 73 73 73 72 68 70 64 64 72 74 74 72 75 75 76 76 75 73 71
14 9 7 12 3 5 23 17 23 31 30 32 36 39 42 45 48 51 52 56 58 60 62 63 66 71 71 71 73 74 75 71 71 72 68 66 64 65 72 73 72 73 73 74 76 74 73 74 74
19 14 16 9 8 8 4 15 20 22 29 32 34 36 41 45 47 52 56 55 56 59 62 63 66 70 71 70 72 75 75 75 71 75 74 68 72 65 69 71 72 72 72 74 75 73 73 74 74
15 20 10 9 13 13 4 13 11 26 30 29 32 34 41 46 46 48 54 61 59 56 60 62 64 67 69 69 71 72 73 74 74 73 74 73 71 73 72 73 72 72 72 73 75 72 73 75 72
15 9 13 8 13 8 8 12 28 30 29 28 29 32 36 45 47 49 53 58 62 55 57 61 63 65 68 70 71 73 72 73 73 71 73 74 73 74 75 75 75 74 73 73 75 75 73 71 74
20 19 19 14 18 17 15 14 16 26 25 26 26 33 35 44 49 51 54 59 61 57 57 59 62 65 69 72 74 72 71 72 71 72 72 73 73 73 74 75 75 74 74 75 75 74 71 72 73

GFSSGP_sfc_dewp_270.txt.gz
Dewpoint
70 70 69 69 63 61 41 41 48 44 43 46 50 50 51 54 53 53 65 67 68 67 70 70 74 73 72 73 73 74 74 74 74 76 77 77 77 76 76 76 76 75 75 75 75 75 75 75 74
69 69 70 69 59 42 43 43 43 46 46 50 55 52 53 53 57 60 62 65 64 66 67 69 74 73 73 73 73 75 74 74 75 76 77 76 77 76 76 75 75 75 75 76 75 74 74 75 74
70 69 68 64 49 40 41 41 43 44 50 50 54 54 53 54 56 59 64 65 66 66 67 70 73 73 73 74 75 75 74 74 75 76 77 76 76 77 77 75 75 75 76 76 75 74 74 72 71
68 70 66 54 43 43 42 43 43 45 48 53 54 53 55 58 58 59 62 66 67 67 69 73 73 73 74 73 72 72 74 75 76 76 76 76 76 76 75 75 75 76 76 76 75 74 74 72 70
69 66 60 41 39 40 44 44 48 45 46 54 54 55 56 58 59 60 61 66 66 66 68 70 74 74 74 74 73 75 73 76 76 76 76 77 77 75 76 75 75 75 75 77 76 74 74 73 69
66 66 54 41 41 45 44 43 44 47 47 54 57 57 57 59 59 59 62 65 63 67 68 69 73 74 75 73 73 75 74 75 75 75 76 76 76 75 75 75 75 75 75 75 76 75 74 73 70
61 62 49 43 43 44 44 45 43 44 47 50 56 56 57 58 59 60 63 64 63 65 67 69 69 72 74 75 74 72 73 75 75 76 77 76 75 74 75 76 75 74 73 74 73 74 74 74 72
61 65 53 52 43 43 44 44 46 48 47 52 55 53 55 57 59 59 64 63 62 64 66 68 71 70 71 71 75 73 76 75 75 75 76 75 75 73 74 76 76 73 73 73 73 73 73 74 74
61 61 57 52 44 44 45 44 46 48 47 48 53 54 56 57 57 59 61 59 61 64 67 67 68 71 72 73 73 76 75 75 75 75 75 75 75 73 73 75 74 73 74 74 74 75 75 76 76
60 61 55 47 46 45 46 44 46 47 48 50 51 55 55 56 56 56 57 57 59 58 62 67 68 68 69 66 73 74 74 73 75 74 76 76 74 72 68 72 75 75 76 76 77 77 77 76 71
63 55 54 52 49 47 46 45 51 50 48 51 52 54 55 55 56 56 56 57 58 58 60 66 69 69 66 68 71 71 72 73 74 77 74 76 72 72 68 71 71 74 75 71 73 71 71 71 69
53 54 54 55 54 53 52 48 46 46 47 52 53 54 55 54 55 55 55 57 58 58 60 65 68 69 70 69 70 69 71 73 72 74 77 76 75 74 73 70 72 75 72 73 71 70 72 68 68
54 54 55 55 57 58 57 55 50 48 50 53 53 54 54 53 54 54 55 57 58 59 63 64 69 69 72 76 76 77 69 72 72 73 77 73 74 75 73 72 73 73 68 72 72 73 71 73 68
56 54 56 57 57 57 56 57 55 51 50 52 53 53 53 53 53 53 54 56 59 60 64 65 68 72 72 76 74 75 73 74 73 71 73 76 74 76 74 73 72 72 72 74 74 74 76 72 66
58 55 56 58 57 56 57 57 60 53 50 51 52 52 52 52 53 53 54 58 59 60 62 66 67 68 73 72 75 75 71 70 72 72 75 75 75 76 78 74 71 73 75 75 76 75 74 73 66
54 57 57 56 57 58 60 56 60 54 52 50 51 52 52 53 53 54 56 59 62 61 66 66 63 66 70 74 74 72 71 69 71 71 73 75 76 76 78 73 72 73 74 74 73 72 71 71 71
54 46 50 53 54 57 58 57 55 55 53 52 52 53 54 55 55 57 55 57 59 64 67 68 69 67 70 74 72 74 72 72 70 69 70 75 74 73 77 73 75 75 73 72 71 73 73 73 72
42 40 36 47 43 43 48 51 53 54 53 53 52 52 53 54 55 55 55 56 59 64 68 70 69 71 73 72 76 71 71 72 71 70 70 73 72 75 76 75 75 75 73 74 75 77 75 74 73
39 35 35 34 37 33 35 37 50 53 53 53 53 53 52 53 55 55 54 56 58 62 67 70 71 75 71 71 70 70 68 68 68 69 73 74 74 73 77 74 73 74 74 75 76 76 76 73 74
34 35 35 34 33 34 39 37 42 51 52 52 53 53 52 52 53 56 57 57 58 62 67 70 71 74 73 71 71 71 69 68 68 70 73 73 74 74 73 75 74 73 72 74 75 77 75 74 75
24 28 27 30 28 27 30 38 39 50 51 52 53 55 55 53 53 56 58 60 60 62 66 70 72 73 73 73 72 74 74 75 73 72 71 72 74 75 74 75 76 77 76 74 77 76 76 73 72
13 14 15 18 16 17 27 31 39 45 49 50 51 53 54 55 54 57 58 60 61 61 64 70 72 74 73 74 72 73 70 69 70 74 70 71 73 74 74 75 76 77 77 75 74 75 76 77 72
15 10 13 13 10 6 10 21 29 43 46 49 50 55 54 55 55 54 55 60 60 61 64 68 72 74 74 74 74 73 72 70 71 71 73 73 74 74 72 73 77 77 76 75 77 77 76 77 75
11 10 8 7 4 5 8 4 15 35 43 50 55 58 58 62 59 56 58 60 61 60 62 67 72 73 75 75 74 75 73 73 70 71 71 70 72 72 74 73 75 78 77 76 76 78 75 77 77
12 8 8 8 4 3 6 4 27 38 41 45 49 52 55 61 53 55 60 59 61 61 61 65 72 73 74 75 74 74 76 74 74 77 71 71 70 71 72 75 76 74 78 77 77 77 78 78 76
17 6 9 13 8 10 16 15 34 37 39 40 41 41 42 42 44 47 52 59 60 62 63 63 71 73 74 73 75 75 76 74 73 75 72 70 69 69 74 73 74 76 77 76 76 77 76 77 77
14 18 13 8 8 1 9 30 33 35 36 36 36 38 38 41 43 45 46 49 58 62 63 63 67 72 73 73 74 75 75 75 73 75 76 73 73 70 74 73 72 75 75 77 75 75 76 76 77
9 10 6 12 13 10 3 11 20 36 34 33 31 32 34 35 39 43 46 50 53 54 59 65 65 70 73 73 73 74 75 76 75 75 74 74 75 74 76 74 73 74 75 74 76 75 74 75 76
10 15 11 1 3 7 7 20 33 36 32 30 26 25 26 32 36 41 43 49 53 55 57 63 67 69 71 73 73 74 74 75 76 74 75 75 74 77 74 76 75 74 74 75 74 74 74 75 75
16 17 14 12 18 16 12 8 29 30 27 24 22 26 26 26 37 41 45 50 54 58 60 63 68 70 70 72 73 74 74 75 75 75 74 75 75 75 77 75 75 74 74 74 74 74 72 72 73

GFSSGP_sfc_dewp_273.txt.gz
Dewpoint
71 69 71 70 60 59 44 45 45 51 51 52 53 52 53 55 54 54 67 66 67 68 71 72 75 74 73 74 74 74 75 76 76 76 77 76 76 76 76 76 75 76 75 75 75 75 74 73 74
70 70 70 68 57 43 44 45 47 53 54 54 54 56 57 57 61 64 66 69 69 69 69 71 75 75 74 74 75 75 75 76 76 76 76 76 77 77 76 75 75 76 76 74 74 73 74 73 72
69 71 67 62 57 40 41 44 48 54 55 52 52 55 57 59 63 64 67 68 67 68 70 71 74 74 74 74 76 75 76 76 77 76 76 76 76 77 75 75 76 75 75 74 73 72 70 70 70
69 70 67 60 44 44 42 43 51 52 52 53 54 55 58 61 62 64 65 66 67 68 70 73 73 74 74 75 77 75 76 76 76 77 76 77 76 76 76 76 76 76 75 74 73 72 70 68 69
72 67 60 51 44 44 46 46 54 53 52 53 56 55 56 60 63 65 66 67 67 69 70 72 75 76 75 74 76 76 77 77 76 76 76 76 75 76 76 75 76 76 76 75 74 73 70 68 68
63 64 57 43 44 45 45 47 54 55 56 56 56 55 56 62 64 65 66 67 68 69 70 70 74 75 75 75 75 76 76 76 76 76 76 75 75 75 76 75 75 75 75 75 74 74 72 69 68
61 61 56 43 43 45 43 45 45 55 55 55 57 55 57 58 65 65 65 66 67 68 68 69 71 70 73 74 75 76 75 76 76 76 76 76 74 74 75 75 76 74 74 74 74 74 74 72 72
62 63 57 46 43 43 46 47 48 54 55 57 57 55 56 59 62 63 66 66 66 67 68 68 70 70 71 71 74 75 76 76 75 76 76 74 73 74 75 76 76 75 74 74 73 74 75 76 76
66 61 57 46 44 43 45 45 47 53 55 56 55 57 57 60 62 63 62 65 66 67 67 69 69 70 71 72 69 76 75 76 75 75 75 76 73 71 72 74 75 74 74 75 76 76 76 76 77
62 59 56 49 48 44 46 46 47 48 52 53 55 56 57 61 61 61 61 62 65 65 67 68 69 69 71 69 72 73 73 74 74 74 74 74 73 73 70 72 76 76 77 77 77 77 77 77 72
60 60 55 52 47 47 45 47 49 49 50 53 55 55 57 59 61 59 58 62 64 65 66 68 68 69 68 69 72 73 73 73 73 73 72 72 73 71 69 69 71 72 74 72 73 75 74 72 71
61 60 55 57 56 51 51 48 46 50 51 54 54 55 55 55 56 56 57 58 59 64 66 68 67 68 66 69 71 71 72 73 73 72 73 73 71 67 67 68 70 71 71 70 69 68 70 69 69
58 55 56 58 57 58 58 51 49 52 53 54 54 54 54 55 55 56 57 58 58 63 66 67 68 69 67 69 71 71 72 73 71 72 72 70 70 70 69 68 68 68 70 69 66 67 70 68 65
57 57 56 59 56 56 58 60 51 52 53 53 54 54 54 54 54 55 57 57 59 63 65 67 68 68 71 71 70 68 71 72 71 71 70 70 71 69 68 66 68 68 68 68 69 68 70 72 67
56 54 58 59 60 57 59 58 54 52 52 52 53 53 54 54 54 54 57 57 60 63 65 66 68 70 69 70 69 70 71 72 71 70 69 70 69 69 72 70 68 69 65 67 69 70 71 70 66
57 57 55 58 59 57 59 56 56 55 51 52 52 52 53 53 54 54 57 59 61 63 65 66 65 69 69 68 69 70 70 68 70 70 70 71 71 70 71 71 68 68 68 70 70 69 68 66 66
57 50 52 54 57 56 56 58 58 56 50 50 51 51 52 52 54 54 58 59 60 64 64 63 66 67 68 71 68 70 69 68 70 71 70 71 70 70 71 73 70 66 66 69 70 70 69 68 69
45 49 51 51 53 57 57 55 57 53 50 50 51 52 53 54 54 55 56 57 61 65 64 67 65 68 68 71 70 70 70 68 69 69 69 71 70 71 71 72 72 68 69 72 70 70 70 71 69
39 36 40 47 41 40 48 51 54 53 52 51 51 53 54 54 55 55 55 57 63 65 65 66 66 68 69 68 69 69 68 67 67 68 69 71 71 71 72 72 72 67 67 70 70 70 70 70 71
32 33 34 36 38 34 38 40 53 54 53 52 52 52 52 54 54 54 55 57 61 64 66 68 70 70 70 67 68 69 68 67 67 69 70 71 72 69 70 72 72 70 67 70 68 70 70 71 70
21 19 18 30 33 33 36 38 44 53 53 54 53 53 52 52 54 53 54 56 59 64 66 68 70 69 70 69 68 70 70 70 68 70 70 70 71 71 70 70 71 72 72 69 69 71 70 69 70
13 11 13 14 17 12 13 14 40 50 51 52 55 55 53 52 54 54 54 56 59 64 66 68 70 70 70 70 68 69 68 66 68 70 70 71 70 71 72 70 72 72 72 69 70 72 71 72 67
20 11 10 12 10 8 7 7 22 49 52 52 57 61 63 64 65 61 58 59 60 62 65 67 70 71 68 70 71 69 69 68 69 69 69 68 71 71 70 71 71 72 71 70 72 72 72 72 70
13 11 12 10 7 6 7 9 8 46 52 56 59 62 63 65 67 64 62 65 63 62 64 67 69 71 69 69 71 71 69 69 69 69 68 69 69 71 70 71 70 74 72 71 69 72 70 70 72
9 21 12 15 8 8 8 11 40 50 54 54 55 58 60 65 64 63 62 68 67 67 64 67 68 70 70 71 70 70 72 70 70 71 67 70 69 69 70 70 72 71 74 73 72 70 74 73 71
14 21 12 11 9 11 20 34 39 49 50 52 53 54 57 60 61 60 65 66 68 70 70 66 68 68 71 72 71 69 71 72 72 70 72 71 70 69 70 71 71 71 72 74 72 74 71 72 74
11 16 7 10 9 6 29 35 42 43 39 37 34 35 38 42 45 47 62 64 66 68 68 67 69 70 70 70 72 71 71 71 72 72 72 73 70 69 70 70 70 73 72 74 72 71 72 73 73
20 13 5 14 17 10 19 32 33 39 33 31 29 32 35 38 41 44 49 53 55 57 63 67 69 70 72 72 70 72 72 71 71 73 72 72 72 70 71 70 70 68 73 73 73 71 72 73 73
11 15 22 12 9 5 10 29 37 39 26 25 25 25 27 36 42 44 49 52 56 58 60 63 66 68 69 72 71 71 72 72 71 71 72 72 72 72 71 72 70 69 71 72 72 73 72 72 70
16 18 15 19 14 15 19 27 37 32 27 25 29 31 32 41 44 46 50 56 56 56 57 60 64 67 68 69 70 71 71 72 72 72 71 72 72 72 70 74 72 71 71 73 72 70 70 71 71